Zurück zum Katalog

IRIDIUM 173

AktivKommunikationPO
NORAD 43925·PAYLOAD·🇺🇸 United States

Gestartet Jan 11, 2019 von Vandenberg Space Force Base

Loading…

Nächste Überflüge (nächste 24 Stunden)

TLE

AktuellSource: CelesTrak SupGP

Epoche: Sep 14, 2026, 20:45 UTC

1 43925C 19002D   26257.86493056 -.00001362  00000+0 -48681-3 0  2578
2 43925  86.3975 316.0974 0002326  95.4635  37.2109 14.34217669    14

Verfolge IRIDIUM 173 in Echtzeit mit AllMySat

Download on the App Store